Weather Service Report


240 
ASUS44 KJAN 272203
RWRMS 

MISSISSIPPI HOURLY WEATHER ROUNDUP
NATIONAL WEATHER SERVICE JACKSON MS
400 PM CST THU NOV 27 2014

NOTE: "FAIR: INDICATES FEW OR NO CLOUDS BELOW 12,000 FEET WITH NO
SIGNIFICANT WEATHER AND/OR OBSTRUCTIONS TO VISIBILITY.

MSZ001>002-007>008-010>013-018>021-025>028-034>036-272300-
NORTHWEST MISSISSIPPI
  
CITY           SKY/WX    TMP DP  RH WIND       PRES   REMARKS
CLARKSDALE     FAIR      46  32  57 N7        30.49R                  
CLEVELAND      FAIR      46  32  59 MISG      30.49R                  
GREENWOOD      CLEAR     46  29  51 N8        30.49R                  
GREENVILLE     CLEAR     47  30  51 CALM      30.49S                  
GRENADA        FAIR      45  30  57 N6        30.47S                  
OLIVE BRANCH   PTCLDY    41  30  65 N6        30.47S                  
OXFORD         FAIR      41  27  56 N5        30.48S                  
TUNICA         CLEAR     45  32  61 N6        30.49S                  
$$

MSZ003>006-009-014>017-022>024-029>033-037>039-272300-
NORTHEAST MISSISSIPPI
  
CITY           SKY/WX    TMP DP  RH WIND       PRES   REMARKS
COLUMBUS AFB   CLOUDY    43  28  55 N9        30.46S                  
CORINTH        CLOUDY    41  27  56 NW9       30.47R                  
GOLDN TRIANGLE PTCLDY    45  28  53 N9        30.46R                  
STARKVILLE     FAIR      43  30  61 CALM      30.46S                  
TUPELO         MOCLDY    44  28  53 N6        30.47R                  
$$

MSZ040-058-272300-
CENTRAL MISSISSIPPI
  
CITY           SKY/WX    TMP DP  RH WIND       PRES   REMARKS
JACKSON INTL   CLEAR     49  30  48 N9        30.46R                  
JACKSON HAWKNS CLEAR     48  29  47 N7        30.46R                  
MERIDIAN KEY   CLEAR     49  29  46 N10       30.43R                  
MERIDIAN NAS   CLEAR     48  29  47 NW9       30.45R                  
RAYMOND        FAIR      48  45  87 N8        30.46S                  
VICKSBURG      SUNNY     49  31  49 N12       30.48R                  
$$

MSZ059>079-272300-
SOUTH MISSISSIPPI
  
CITY           SKY/WX    TMP DP  RH WIND       PRES   REMARKS
BROOKHAVEN     FAIR      52  32  46 N10       30.44R                  
HATTIESBURG    CLEAR     55  30  38 N8        30.42R                  
MCCOMB         SUNNY     55  28  35 N9        30.41S                  
NATCHEZ        SUNNY     52  30  43 N9        30.45S                  
PINE BELT      CLEAR     54  28  37 N9        30.43R                  
$$

MSZ080>082-272300-
COASTAL MISSISSIPPI
  
CITY           SKY/WX    TMP DP  RH WIND       PRES   REMARKS
BAY ST LOUIS   SUNNY     59  21  23 MISG      30.39R                  
BILOXI         CLEAR     58  31  36 VRB7      30.38R                  
PASCAGOULA     CLEAR     57  29  34 N13       30.38R                  
GULFPORT       CLEAR     58  29  33 N12G20    30.38R                  
$$

Return to Home page


Western Regional Climate Center, wrcc@dri.edu